| time (UTC) | temp F | wind direction | speed MPH | gust MPH | rain 1hr in | rain 24hr in | rain mn in | humidity % | barometer mb |
| 20260507151204 | 55 | 271 | 0.0 | 1.0 | 0.00 | 0.02 | 0.02 | 79 | 1009.8 |
| 20260507150704 | 55 | 32 | 0.0 | 0.0 | 0.00 | 0.02 | 0.02 | 81 | 1009.8 |
| 20260507150205 | 55 | 30 | 0.0 | 0.0 | 0.00 | 0.02 | 0.02 | 81 | 1009.8 |
| 20260507145704 | 55 | 22 | 0.0 | 0.0 | 0.00 | 0.03 | 0.02 | 81 | 1009.8 |
| 20260507145204 | 55 | 0 | 1.0 | 3.0 | 0.00 | 0.05 | 0.02 | 80 | 1009.8 |
| 20260507144204 | 56 | 344 | 0.0 | 1.0 | 0.00 | 0.07 | 0.02 | 79 | 1010.0 |
| 20260507143704 | 56 | 65 | 0.0 | 2.0 | 0.00 | 0.08 | 0.02 | 78 | 1010.0 |
| 20260507143205 | 56 | 348 | 1.0 | 3.0 | 0.00 | 0.09 | 0.02 | 78 | 1010.0 |
| 20260507142205 | 56 | 0 | 0.0 | 3.0 | 0.00 | 0.09 | 0.02 | 80 | 1010.2 |
| 20260507141704 | 56 | 351 | 1.0 | 5.0 | 0.00 | 0.10 | 0.02 | 80 | 1010.2 |
| 20260507141204 | 56 | 39 | 0.0 | 3.0 | 0.00 | 0.10 | 0.02 | 81 | 1010.2 |
| 20260507140704 | 56 | 243 | 0.0 | 3.0 | 0.00 | 0.11 | 0.02 | 82 | 1010.2 |
| 20260507140204 | 56 | 359 | 1.0 | 3.0 | 0.00 | 0.11 | 0.02 | 82 | 1010.2 |
| 20260507135704 | 56 | 20 | 1.0 | 3.0 | 0.00 | 0.11 | 0.02 | 82 | 1010.2 |
| 20260507135204 | 56 | 59 | 1.0 | 3.0 | 0.00 | 0.11 | 0.02 | 82 | 1010.2 |
| 20260507134705 | 56 | 304 | 1.0 | 5.0 | 0.00 | 0.11 | 0.02 | 82 | 1009.8 |
| 20260507134204 | 56 | 294 | 0.0 | 7.0 | 0.00 | 0.11 | 0.02 | 83 | 1009.8 |
| 20260507133704 | 56 | 76 | 1.0 | 6.0 | 0.00 | 0.11 | 0.02 | 83 | 1009.8 |
| 20260507133204 | 56 | 339 | 1.0 | 5.0 | 0.00 | 0.11 | 0.02 | 84 | 1009.8 |
| 20260507132705 | 56 | 356 | 0.0 | 3.0 | 0.00 | 0.11 | 0.02 | 84 | 1009.8 |
| 20260507132204 | 56 | 333 | 0.0 | 5.0 | 0.00 | 0.11 | 0.02 | 85 | 1009.8 |
| 20260507131704 | 56 | 334 | 1.0 | 3.0 | 0.00 | 0.11 | 0.02 | 85 | 1009.8 |
| 20260507130705 | 56 | 216 | 0.0 | 2.0 | 0.00 | 0.11 | 0.02 | 86 | 1009.7 |
| 20260507130205 | 56 | 20 | 2.0 | 8.0 | 0.00 | 0.11 | 0.02 | 86 | 1009.5 |
| 20260507125704 | 56 | 32 | 1.0 | 6.0 | 0.00 | 0.11 | 0.02 | 87 | 1009.5 |
| 20260507125205 | 56 | 215 | 0.0 | 3.0 | 0.00 | 0.11 | 0.02 | 88 | 1009.5 |
| 20260507124704 | 56 | 234 | 1.0 | 6.0 | 0.00 | 0.11 | 0.02 | 88 | 1009.5 |
| 20260507124205 | 56 | 58 | 0.0 | 2.0 | 0.00 | 0.11 | 0.02 | 89 | 1009.5 |
| 20260507123704 | 56 | 18 | 1.0 | 5.0 | 0.00 | 0.11 | 0.02 | 91 | 1009.5 |
| 20260507123204 | 56 | 23 | 0.0 | 1.0 | 0.00 | 0.11 | 0.02 | 92 | 1009.5 |
| 20260507122705 | 56 | 342 | 0.0 | 3.0 | 0.00 | 0.11 | 0.02 | 93 | 1009.5 |
| 20260507122205 | 56 | 11 | 0.0 | 2.0 | 0.00 | 0.11 | 0.02 | 94 | 1009.3 |
| 20260507121204 | 56 | 52 | 0.0 | 2.0 | 0.00 | 0.11 | 0.02 | 94 | 1009.3 |
| 20260507120704 | 56 | 31 | 0.0 | 0.0 | 0.00 | 0.11 | 0.02 | 94 | 1009.3 |
| 20260507120204 | 56 | 38 | 0.0 | 3.0 | 0.00 | 0.11 | 0.02 | 94 | 1009.3 |
| 20260507115704 | 56 | 9 | 0.0 | 0.0 | 0.00 | 0.11 | 0.02 | 94 | 1009.3 |
| 20260507115204 | 56 | 255 | 0.0 | 0.0 | 0.00 | 0.11 | 0.02 | 94 | 1009.3 |
| 20260507114704 | 56 | 255 | 0.0 | 3.0 | 0.00 | 0.11 | 0.02 | 94 | 1009.3 |
| 20260507114205 | 56 | 350 | 0.0 | 2.0 | 0.00 | 0.11 | 0.02 | 94 | 1009.3 |
| 20260507113704 | 56 | 61 | 0.0 | 1.0 | 0.00 | 0.11 | 0.02 | 94 | 1009.3 |
| 20260507113204 | 56 | 310 | 1.0 | 3.0 | 0.00 | 0.11 | 0.02 | 94 | 1009.3 |
| 20260507112204 | 56 | 354 | 0.0 | 0.0 | 0.00 | 0.11 | 0.02 | 94 | 1009.2 |
| 20260507111704 | 55 | 13 | 0.0 | 0.0 | 0.00 | 0.11 | 0.02 | 94 | 1008.7 |
| 20260507111204 | 55 | 10 | 0.0 | 0.0 | 0.00 | 0.11 | 0.02 | 94 | 1008.7 |
| 20260507110704 | 55 | 334 | 0.0 | 0.0 | 0.00 | 0.11 | 0.02 | 94 | 1008.7 |
| 20260507110204 | 55 | 349 | 0.0 | 0.0 | 0.01 | 0.11 | 0.02 | 94 | 1008.7 |
| 20260507105704 | 55 | 355 | 0.0 | 0.0 | 0.01 | 0.11 | 0.02 | 94 | 1008.7 |
| 20260507105205 | 55 | 355 | 0.0 | 0.0 | 0.01 | 0.11 | 0.02 | 94 | 1008.7 |
| 20260507104704 | 55 | 340 | 0.0 | 1.0 | 0.01 | 0.11 | 0.02 | 94 | 1008.7 |
| 20260507104204 | 56 | 327 | 0.0 | 3.0 | 0.01 | 0.11 | 0.02 | 94 | 1008.7 |
| 20260507103704 | 56 | 33 | 0.0 | 3.0 | 0.01 | 0.11 | 0.02 | 95 | 1008.7 |
| 20260507103204 | 56 | 261 | 0.0 | 0.0 | 0.01 | 0.11 | 0.02 | 95 | 1008.7 |
| 20260507101704 | 56 | 66 | 0.0 | 0.0 | 0.02 | 0.11 | 0.02 | 94 | 1008.7 |
| 20260507100704 | 56 | 16 | 0.0 | 0.0 | 0.02 | 0.11 | 0.02 | 94 | 1008.7 |
| 20260507100204 | 56 | 315 | 0.0 | 2.0 | 0.01 | 0.10 | 0.01 | 94 | 1008.7 |
| 20260507095704 | 56 | 33 | 1.0 | 8.0 | 0.01 | 0.10 | 0.01 | 94 | 1008.7 |
| 20260507095204 | 57 | 17 | 0.0 | 5.0 | 0.01 | 0.10 | 0.01 | 94 | 1008.7 |
| 20260507094704 | 57 | 0 | 0.0 | 1.0 | 0.01 | 0.10 | 0.01 | 94 | 1008.7 |
| 20260507093204 | 57 | 262 | 0.0 | 3.0 | 0.01 | 0.10 | 0.01 | 93 | 1008.7 |
| 20260507092704 | 57 | 53 | 0.0 | 2.0 | 0.01 | 0.10 | 0.01 | 94 | 1008.7 |
| 20260507092204 | 58 | 4 | 1.0 | 3.0 | 0.01 | 0.10 | 0.01 | 93 | 1008.7 |
| 20260507091704 | 58 | 28 | 0.0 | 3.0 | 0.00 | 0.09 | 0.00 | 93 | 1008.7 |
| 20260507091204 | 58 | 310 | 1.0 | 8.0 | 0.00 | 0.09 | 0.00 | 93 | 1008.7 |
| 20260507090704 | 58 | 32 | 0.0 | 0.0 | 0.00 | 0.09 | 0.00 | 93 | 1008.7 |
| 20260507090204 | 58 | 313 | 0.0 | 3.0 | 0.00 | 0.09 | 0.00 | 92 | 1008.7 |
| 20260507085704 | 59 | 249 | 1.0 | 5.0 | 0.00 | 0.09 | 0.00 | 92 | 1008.7 |
| 20260507084704 | 59 | 259 | 0.0 | 3.0 | 0.00 | 0.09 | 0.00 | 92 | 1008.0 |
| 20260507084204 | 59 | 85 | 1.0 | 7.0 | 0.00 | 0.09 | 0.00 | 92 | 1008.0 |
| 20260507083704 | 60 | 182 | 0.0 | 5.0 | 0.00 | 0.09 | 0.00 | 91 | 1008.0 |
| 20260507083204 | 60 | 332 | 0.0 | 6.0 | 0.00 | 0.09 | 0.00 | 91 | 1008.0 |
| 20260507082704 | 61 | 16 | 1.0 | 3.0 | 0.00 | 0.09 | 0.00 | 91 | 1008.0 |
| 20260507082204 | 61 | 285 | 1.0 | 5.0 | 0.00 | 0.09 | 0.00 | 91 | 1008.0 |
| 20260507081704 | 62 | 47 | 1.0 | 7.0 | 0.00 | 0.09 | 0.00 | 90 | 1008.0 |
| 20260507081203 | 63 | 249 | 1.0 | 6.0 | 0.00 | 0.09 | 0.00 | 90 | 1007.4 |
| 20260507080704 | 65 | 0 | 2.0 | 3.0 | 0.00 | 0.09 | 0.00 | 91 | 1007.4 |
| 20260507075704 | 66 | 224 | 0.0 | 6.0 | 0.00 | 0.09 | 0.00 | 93 | 1007.4 |
| 20260507075204 | 67 | 296 | 1.0 | 5.0 | 0.00 | 0.09 | 0.00 | 93 | 1007.4 |
| 20260507074703 | 67 | 296 | 0.0 | 0.0 | 0.00 | 0.09 | 0.00 | 93 | 1007.4 |
| 20260507074204 | 67 | 296 | 0.0 | 1.0 | 0.00 | 0.09 | 0.00 | 93 | 1007.4 |
| 20260507073704 | 66 | 296 | 0.0 | 1.0 | 0.00 | 0.09 | 0.00 | 93 | 1007.4 |
| 20260507072704 | 66 | 296 | 0.0 | 0.0 | 0.00 | 0.09 | 0.00 | 92 | 1008.0 |
| 20260507072204 | 67 | 296 | 0.0 | 0.0 | 0.00 | 0.09 | 0.00 | 92 | 1008.0 |
| 20260507071204 | 67 | 296 | 0.0 | 0.0 | 0.00 | 0.09 | 0.00 | 92 | 1008.0 |
| 20260507070704 | 67 | 296 | 0.0 | 0.0 | 0.00 | 0.09 | 0.00 | 91 | 1008.0 |
| 20260507065703 | 67 | 296 | 0.0 | 0.0 | 0.00 | 0.09 | 0.00 | 91 | 1008.0 |
| 20260507065204 | 67 | 296 | 0.0 | 0.0 | 0.00 | 0.09 | 0.00 | 91 | 1008.0 |
| 20260507064704 | 67 | 296 | 0.0 | 0.0 | 0.00 | 0.09 | 0.00 | 91 | 1008.0 |
| 20260507064204 | 68 | 296 | 0.0 | 0.0 | 0.00 | 0.09 | 0.00 | 91 | 1008.0 |
| 20260507063704 | 68 | 296 | 0.0 | 0.0 | 0.00 | 0.09 | 0.00 | 90 | 1008.0 |
| 20260507062704 | 68 | 296 | 0.0 | 1.0 | 0.00 | 0.09 | 0.00 | 90 | 1008.0 |
| 20260507062204 | 67 | 296 | 0.0 | 0.0 | 0.00 | 0.09 | 0.00 | 91 | 1008.0 |
| 20260507061204 | 67 | 296 | 0.0 | 0.0 | 0.00 | 0.09 | 0.00 | 91 | 1008.0 |
| 20260507055704 | 67 | 296 | 0.0 | 0.0 | 0.00 | 0.09 | 0.00 | 91 | 1008.0 |
| 20260507055204 | 67 | 296 | 0.0 | 0.0 | 0.00 | 0.09 | 0.00 | 91 | 1008.0 |
| 20260507054704 | 67 | 296 | 0.0 | 0.0 | 0.00 | 0.09 | 0.00 | 90 | 1008.0 |
| 20260507054203 | 68 | 296 | 0.0 | 0.0 | 0.00 | 0.09 | 0.00 | 90 | 1008.0 |
| 20260507052703 | 67 | 296 | 0.0 | 1.0 | 0.00 | 0.09 | 0.00 | 90 | 1008.0 |
| 20260507052204 | 67 | 305 | 0.0 | 3.0 | 0.00 | 0.09 | 0.00 | 90 | 1008.0 |
| 20260507051704 | 67 | 275 | 0.0 | 0.0 | 0.00 | 0.09 | 0.00 | 91 | 1008.0 |
| 20260507051203 | 67 | 275 | 0.0 | 2.0 | 0.00 | 0.09 | 0.00 | 91 | 1008.0 |
| 20260507050703 | 67 | 275 | 0.0 | 0.0 | 0.00 | 0.09 | 0.00 | 91 | 1008.0 |
| 20260507050203 | 67 | 275 | 0.0 | 0.0 | 0.00 | 0.09 | 0.00 | 91 | 1008.0 |
| 20260507045703 | 67 | 275 | 0.0 | 0.0 | 0.00 | 0.09 | 0.00 | 91 | 1008.0 |
| 20260507045204 | 67 | 275 | 0.0 | 1.0 | 0.00 | 0.09 | 0.00 | 91 | 1008.0 |
| 20260507044704 | 67 | 275 | 0.0 | 0.0 | 0.00 | 0.09 | 0.00 | 91 | 1008.0 |
| 20260507044204 | 67 | 275 | 0.0 | 0.0 | 0.00 | 0.09 | 0.00 | 91 | 1008.0 |
| 20260507043703 | 67 | 275 | 0.0 | 0.0 | 0.00 | 0.09 | 0.00 | 91 | 1008.0 |
| 20260507043203 | 67 | 275 | 0.0 | 0.0 | 0.00 | 0.09 | 0.00 | 90 | 1008.0 |
| 20260507042703 | 67 | 275 | 0.0 | 0.0 | 0.00 | 0.09 | 0.00 | 91 | 1008.0 |
| 20260507042204 | 67 | 275 | 0.0 | 0.0 | 0.00 | 0.09 | 0.00 | 90 | 1008.0 |
| 20260507041704 | 67 | 275 | 0.0 | 0.0 | 0.00 | 0.09 | 0.00 | 90 | 1008.0 |
| 20260507041204 | 67 | 275 | 0.0 | 0.0 | 0.00 | 0.09 | 0.00 | 90 | 1008.0 |
| 20260507040204 | 67 | 275 | 0.0 | 0.0 | 0.00 | 0.09 | 0.00 | 91 | 1008.0 |
| 20260507035704 | 67 | 275 | 0.0 | 0.0 | 0.00 | 0.09 | 0.09 | 91 | 1008.0 |
| 20260507034704 | 67 | 275 | 0.0 | 0.0 | 0.00 | 0.09 | 0.09 | 91 | 1007.4 |
| 20260507034203 | 67 | 275 | 0.0 | 0.0 | 0.00 | 0.09 | 0.09 | 91 | 1007.4 |
| 20260507033703 | 67 | 275 | 0.0 | 0.0 | 0.00 | 0.09 | 0.09 | 92 | 1007.4 |
| 20260507032703 | 67 | 275 | 0.0 | 0.0 | 0.00 | 0.09 | 0.09 | 92 | 1007.4 |
| 20260507032204 | 67 | 275 | 0.0 | 0.0 | 0.00 | 0.09 | 0.09 | 92 | 1007.4 |
| 20260507031704 | 66 | 275 | 0.0 | 0.0 | 0.00 | 0.09 | 0.09 | 93 | 1007.4 |
| 20260507031203 | 66 | 275 | 0.0 | 0.0 | 0.00 | 0.09 | 0.09 | 93 | 1007.4 |
| 20260507030703 | 66 | 275 | 0.0 | 0.0 | 0.00 | 0.09 | 0.09 | 93 | 1007.4 |
| 20260507030203 | 66 | 275 | 0.0 | 0.0 | 0.00 | 0.09 | 0.09 | 93 | 1007.4 |
| 20260507025204 | 66 | 275 | 0.0 | 0.0 | 0.00 | 0.09 | 0.09 | 93 | 1007.4 |
| 20260507023703 | 66 | 275 | 0.0 | 0.0 | 0.00 | 0.09 | 0.09 | 93 | 1007.9 |
| 20260507023203 | 66 | 275 | 0.0 | 0.0 | 0.00 | 0.09 | 0.09 | 93 | 1007.9 |
| 20260507022704 | 66 | 275 | 0.0 | 0.0 | 0.00 | 0.09 | 0.09 | 93 | 1007.9 |
| 20260507022203 | 66 | 275 | 0.0 | 0.0 | 0.00 | 0.09 | 0.09 | 93 | 1007.9 |
| 20260507021703 | 66 | 275 | 0.0 | 0.0 | 0.00 | 0.09 | 0.09 | 93 | 1007.9 |
| 20260507021204 | 66 | 275 | 0.0 | 0.0 | 0.00 | 0.09 | 0.09 | 93 | 1007.9 |
| 20260507020704 | 66 | 275 | 0.0 | 0.0 | 0.00 | 0.09 | 0.09 | 93 | 1007.9 |
| 20260507020204 | 65 | 275 | 0.0 | 2.0 | 0.00 | 0.09 | 0.09 | 93 | 1007.9 |
| 20260507015704 | 65 | 275 | 0.0 | 0.0 | 0.00 | 0.09 | 0.09 | 93 | 1007.9 |
| 20260507015203 | 65 | 275 | 0.0 | 0.0 | 0.00 | 0.09 | 0.09 | 92 | 1007.9 |
| 20260507014703 | 65 | 275 | 0.0 | 0.0 | 0.00 | 0.09 | 0.09 | 92 | 1007.9 |
| 20260507013704 | 66 | 275 | 0.0 | 0.0 | 0.00 | 0.09 | 0.09 | 92 | 1007.9 |
| 20260507013204 | 66 | 275 | 0.0 | 0.0 | 0.00 | 0.09 | 0.09 | 92 | 1007.9 |
| 20260507012704 | 66 | 275 | 0.0 | 0.0 | 0.00 | 0.09 | 0.09 | 91 | 1007.8 |
| 20260507012203 | 66 | 275 | 0.0 | 0.0 | 0.00 | 0.09 | 0.09 | 91 | 1007.8 |
| 20260507011703 | 66 | 275 | 0.0 | 0.0 | 0.00 | 0.09 | 0.09 | 91 | 1007.8 |
| 20260507010203 | 67 | 275 | 0.0 | 0.0 | 0.00 | 0.09 | 0.09 | 89 | 1007.8 |
| 20260507005703 | 67 | 275 | 0.0 | 0.0 | 0.00 | 0.09 | 0.09 | 89 | 1007.8 |
| 20260507005203 | 67 | 275 | 0.0 | 0.0 | 0.00 | 0.09 | 0.09 | 89 | 1007.8 |
| 20260507004703 | 67 | 275 | 0.0 | 0.0 | 0.00 | 0.09 | 0.09 | 88 | 1007.8 |
| 20260507004204 | 67 | 275 | 0.0 | 0.0 | 0.00 | 0.09 | 0.09 | 88 | 1007.8 |
| 20260507002703 | 68 | 275 | 0.0 | 0.0 | 0.00 | 0.09 | 0.09 | 87 | 1007.8 |
| 20260507002205 | 68 | 275 | 0.0 | 0.0 | 0.00 | 0.09 | 0.09 | 87 | 1007.8 |
| 20260507001705 | 68 | 275 | 0.0 | 0.0 | 0.00 | 0.09 | 0.09 | 87 | 1007.8 |
| 20260507001205 | 68 | 275 | 0.0 | 0.0 | 0.00 | 0.09 | 0.09 | 87 | 1007.8 |
| 20260507000705 | 68 | 275 | 0.0 | 0.0 | 0.00 | 0.09 | 0.09 | 86 | 1007.8 |
| 20260507000205 | 69 | 275 | 0.0 | 0.0 | 0.00 | 0.09 | 0.09 | 86 | 1007.8 |
| 20260506235705 | 69 | 275 | 0.0 | 0.0 | 0.00 | 0.09 | 0.09 | 85 | 1007.4 |
| 20260506235205 | 69 | 275 | 0.0 | 0.0 | 0.00 | 0.09 | 0.09 | 84 | 1007.4 |
| 20260506234705 | 69 | 275 | 0.0 | 0.0 | 0.00 | 0.09 | 0.09 | 84 | 1007.4 |
| 20260506234205 | 69 | 275 | 0.0 | 0.0 | 0.00 | 0.09 | 0.09 | 84 | 1007.4 |
| 20260506233205 | 69 | 275 | 0.0 | 0.0 | 0.00 | 0.09 | 0.09 | 83 | 1007.4 |
| 20260506232705 | 70 | 275 | 0.0 | 0.0 | 0.00 | 0.09 | 0.09 | 83 | 1007.4 |
| 20260506231705 | 70 | 202 | 0.0 | 0.0 | 0.00 | 0.09 | 0.09 | 82 | 1007.4 |
| 20260506231205 | 70 | 202 | 0.0 | 0.0 | 0.00 | 0.09 | 0.09 | 81 | 1007.4 |
| 20260506230704 | 70 | 202 | 0.0 | 0.0 | 0.00 | 0.09 | 0.09 | 81 | 1007.4 |
| 20260506230205 | 70 | 202 | 0.0 | 2.0 | 0.00 | 0.09 | 0.09 | 82 | 1007.4 |
| 20260506225705 | 70 | 200 | 0.0 | 0.0 | 0.00 | 0.09 | 0.09 | 82 | 1007.4 |
| 20260506224705 | 70 | 175 | 0.0 | 0.0 | 0.00 | 0.09 | 0.09 | 82 | 1007.6 |
| 20260506223205 | 70 | 153 | 0.0 | 5.0 | 0.00 | 0.09 | 0.09 | 81 | 1007.8 |
| 20260506222705 | 70 | 246 | 0.0 | 2.0 | 0.00 | 0.09 | 0.09 | 80 | 1007.8 |
| 20260506222204 | 70 | 249 | 0.0 | 2.0 | 0.00 | 0.09 | 0.09 | 81 | 1007.8 |
| 20260506221705 | 70 | 321 | 0.0 | 1.0 | 0.00 | 0.09 | 0.09 | 80 | 1007.8 |
| 20260506221205 | 70 | 302 | 0.0 | 0.0 | 0.00 | 0.09 | 0.09 | 81 | 1007.8 |
| 20260506220705 | 70 | 284 | 0.0 | 2.0 | 0.00 | 0.09 | 0.09 | 81 | 1007.8 |
| 20260506220205 | 70 | 216 | 0.0 | 1.0 | 0.00 | 0.09 | 0.09 | 81 | 1007.8 |
| 20260506215205 | 70 | 217 | 0.0 | 2.0 | 0.00 | 0.09 | 0.09 | 81 | 1007.8 |
| 20260506214204 | 70 | 209 | 0.0 | 3.0 | 0.00 | 0.09 | 0.09 | 81 | 1007.8 |
| 20260506213205 | 70 | 248 | 0.0 | 3.0 | 0.00 | 0.09 | 0.09 | 81 | 1007.8 |
| 20260506212705 | 70 | 291 | 0.0 | 0.0 | 0.00 | 0.09 | 0.09 | 82 | 1007.8 |
| 20260506212204 | 70 | 257 | 0.0 | 2.0 | 0.00 | 0.09 | 0.09 | 83 | 1007.8 |
| 20260506211705 | 70 | 342 | 1.0 | 3.0 | 0.00 | 0.09 | 0.09 | 84 | 1007.7 |
| 20260506211205 | 70 | 1 | 0.0 | 2.0 | 0.00 | 0.09 | 0.09 | 84 | 1007.7 |
| 20260506210705 | 70 | 208 | 0.0 | 1.0 | 0.00 | 0.09 | 0.09 | 84 | 1007.7 |
| 20260506210204 | 70 | 155 | 0.0 | 0.0 | 0.00 | 0.09 | 0.09 | 85 | 1007.7 |
| 20260506205205 | 69 | 213 | 0.0 | 1.0 | 0.00 | 0.09 | 0.09 | 87 | 1007.7 |
| 20260506204705 | 69 | 96 | 0.0 | 0.0 | 0.00 | 0.09 | 0.09 | 87 | 1007.7 |
| 20260506204205 | 69 | 96 | 0.0 | 3.0 | 0.00 | 0.09 | 0.09 | 88 | 1007.7 |
| 20260506203204 | 69 | 154 | 0.0 | 0.0 | 0.00 | 0.09 | 0.09 | 88 | 1007.7 |
| 20260506202704 | 69 | 154 | 0.0 | 0.0 | 0.00 | 0.09 | 0.09 | 89 | 1007.7 |
| 20260506202205 | 69 | 154 | 0.0 | 0.0 | 0.00 | 0.09 | 0.09 | 89 | 1007.8 |
| 20260506201705 | 68 | 154 | 0.0 | 0.0 | 0.00 | 0.09 | 0.09 | 89 | 1007.1 |
| 20260506201205 | 68 | 154 | 0.0 | 0.0 | 0.00 | 0.09 | 0.09 | 89 | 1007.1 |
| 20260506200205 | 68 | 154 | 1.0 | 3.0 | 0.00 | 0.09 | 0.09 | 90 | 1007.1 |
| 20260506195705 | 67 | 231 | 0.0 | 1.0 | 0.00 | 0.09 | 0.09 | 90 | 1007.1 |
| 20260506194705 | 67 | 65 | 0.0 | 1.0 | 0.00 | 0.09 | 0.09 | 91 | 1007.1 |
| 20260506194204 | 67 | 66 | 0.0 | 0.0 | 0.00 | 0.09 | 0.09 | 91 | 1007.2 |
| 20260506193704 | 66 | 66 | 0.0 | 0.0 | 0.00 | 0.09 | 0.09 | 91 | 1007.4 |
| 20260506192705 | 66 | 66 | 0.0 | 0.0 | 0.00 | 0.09 | 0.09 | 93 | 1007.6 |
| 20260506192205 | 66 | 78 | 0.0 | 0.0 | 0.00 | 0.09 | 0.09 | 93 | 1009.0 |
| 20260506191704 | 65 | 232 | 0.0 | 1.0 | 0.00 | 0.09 | 0.09 | 93 | 1009.0 |
| 20260506191205 | 65 | 230 | 0.0 | 0.0 | 0.00 | 0.09 | 0.09 | 93 | 1009.0 |
| 20260506190705 | 65 | 342 | 0.0 | 0.0 | 0.00 | 0.09 | 0.09 | 93 | 1009.0 |
| 20260506190204 | 65 | 87 | 0.0 | 2.0 | 0.00 | 0.09 | 0.09 | 93 | 1009.0 |
| 20260506185704 | 65 | 47 | 0.0 | 1.0 | 0.00 | 0.09 | 0.09 | 93 | 1009.0 |
| 20260506185205 | 65 | 19 | 0.0 | 0.0 | 0.00 | 0.09 | 0.09 | 92 | 1009.0 |
| 20260506184704 | 65 | 297 | 0.0 | 2.0 | 0.00 | 0.09 | 0.09 | 92 | 1009.0 |
| 20260506184205 | 65 | 244 | 0.0 | 0.0 | 0.00 | 0.09 | 0.09 | 92 | 1009.0 |
| 20260506183705 | 65 | 230 | 0.0 | 0.0 | 0.00 | 0.09 | 0.09 | 92 | 1009.0 |
| 20260506183205 | 65 | 230 | 0.0 | 0.0 | 0.00 | 0.09 | 0.09 | 91 | 1009.0 |
| 20260506182205 | 65 | 335 | 0.0 | 0.0 | 0.00 | 0.09 | 0.09 | 91 | 1009.0 |
| 20260506181705 | 65 | 221 | 0.0 | 2.0 | 0.00 | 0.09 | 0.09 | 91 | 1009.0 |
| 20260506181205 | 65 | 171 | 0.0 | 2.0 | 0.00 | 0.09 | 0.09 | 91 | 1009.0 |
| 20260506180705 | 65 | 56 | 0.0 | 5.0 | 0.00 | 0.09 | 0.09 | 91 | 1009.0 |
| 20260506180205 | 65 | 219 | 0.0 | 2.0 | 0.00 | 0.09 | 0.09 | 91 | 1009.0 |
| 20260506175704 | 65 | 229 | 0.0 | 0.0 | 0.00 | 0.09 | 0.09 | 92 | 1009.4 |
| 20260506175205 | 65 | 206 | 0.0 | 1.0 | 0.00 | 0.09 | 0.09 | 91 | 1009.4 |
| 20260506174704 | 65 | 227 | 1.0 | 3.0 | 0.00 | 0.09 | 0.09 | 91 | 1009.4 |
| 20260506173705 | 64 | 232 | 0.0 | 2.0 | 0.00 | 0.09 | 0.09 | 92 | 1009.4 |
| 20260506172704 | 64 | 232 | 0.0 | 0.0 | 0.00 | 0.09 | 0.09 | 92 | 1009.4 |
| 20260506172204 | 64 | 231 | 1.0 | 3.0 | 0.00 | 0.09 | 0.09 | 93 | 1009.4 |
| 20260506171705 | 64 | 223 | 1.0 | 3.0 | 0.00 | 0.09 | 0.09 | 94 | 1009.4 |
| 20260506171204 | 64 | 224 | 1.0 | 3.0 | 0.00 | 0.09 | 0.09 | 93 | 1009.4 |
| 20260506170704 | 64 | 247 | 0.0 | 2.0 | 0.00 | 0.09 | 0.09 | 94 | 1009.4 |
| 20260506170204 | 64 | 247 | 0.0 | 2.0 | 0.00 | 0.09 | 0.09 | 93 | 1009.4 |
| 20260506165705 | 64 | 307 | 0.0 | 0.0 | 0.00 | 0.09 | 0.09 | 94 | 1009.4 |
| 20260506165204 | 64 | 306 | 0.0 | 2.0 | 0.00 | 0.09 | 0.09 | 94 | 1009.4 |
| 20260506164705 | 63 | 291 | 0.0 | 8.0 | 0.00 | 0.09 | 0.09 | 94 | 1009.4 |
| 20260506164204 | 63 | 213 | 0.0 | 2.0 | 0.00 | 0.09 | 0.09 | 94 | 1009.5 |
| 20260506163704 | 63 | 14 | 0.0 | 1.0 | 0.00 | 0.09 | 0.09 | 95 | 1009.5 |
| 20260506163204 | 63 | 331 | 0.0 | 0.0 | 0.00 | 0.09 | 0.09 | 95 | 1009.5 |
| 20260506162704 | 62 | 234 | 0.0 | 3.0 | 0.00 | 0.09 | 0.09 | 95 | 1009.5 |
| 20260506162204 | 62 | 59 | 0.0 | 2.0 | 0.00 | 0.09 | 0.09 | 95 | 1009.4 |
| 20260506161704 | 62 | 173 | 1.0 | 5.0 | 0.00 | 0.09 | 0.09 | 95 | 1009.4 |
| 20260506161205 | 62 | 157 | 1.0 | 3.0 | 0.00 | 0.09 | 0.09 | 95 | 1010.3 |
| 20260506160704 | 62 | 5 | 0.0 | 1.0 | 0.00 | 0.09 | 0.09 | 95 | 1010.3 |
| 20260506155704 | 62 | 275 | 0.0 | 2.0 | 0.01 | 0.09 | 0.09 | 95 | 1010.3 |
| 20260506155205 | 62 | 319 | 0.0 | 0.0 | 0.03 | 0.09 | 0.09 | 96 | 1010.3 |
| 20260506154704 | 62 | 328 | 0.0 | 1.0 | 0.04 | 0.09 | 0.09 | 96 | 1010.3 |
| 20260506154205 | 62 | 240 | 0.0 | 1.0 | 0.05 | 0.09 | 0.09 | 96 | 1010.3 |
| 20260506153705 | 62 | 253 | 0.0 | 2.0 | 0.06 | 0.09 | 0.09 | 96 | 1010.3 |
| 20260506153205 | 62 | 256 | 0.0 | 0.0 | 0.07 | 0.09 | 0.09 | 96 | 1010.3 |
| 20260506152205 | 62 | 288 | 0.0 | 2.0 | 0.07 | 0.09 | 0.09 | 95 | 1010.3 |
| 20260506151705 | 61 | 74 | 0.0 | 0.0 | 0.08 | 0.09 | 0.09 | 95 | 1010.3 |